TimeCDT,TemperatureF,Dew PointF,Humidity,Sea Level PressureIn,VisibilityMPH,Wind Direction,Wind SpeedMPH,Gust SpeedMPH,PrecipitationIn,Events,Conditions,WindDirDegrees,DateUTC
12:53 AM,77.0,73.9,90,30.05,10.0,Calm,Calm,-,N/A,,Clear,0,2013-08-11 05:53:00
1:53 AM,77.0,73.9,90,30.04,10.0,Calm,Calm,-,N/A,,Clear,0,2013-08-11 06:53:00
2:53 AM,75.9,73.9,94,30.04,10.0,Calm,Calm,-,N/A,,Clear,0,2013-08-11 07:53:00
3:53 AM,75.9,73.9,94,30.04,10.0,Calm,Calm,-,N/A,,Clear,0,2013-08-11 08:53:00
4:53 AM,75.9,73.9,94,30.05,10.0,Calm,Calm,-,N/A,,Clear,0,2013-08-11 09:53:00
5:53 AM,75.0,73.0,94,30.06,10.0,Calm,Calm,-,N/A,,Clear,0,2013-08-11 10:53:00
6:53 AM,75.9,73.9,94,30.08,10.0,Calm,Calm,-,N/A,,Clear,0,2013-08-11 11:53:00
7:53 AM,78.1,75.0,90,30.08,10.0,ENE,4.6,-,N/A,,Clear,70,2013-08-11 12:53:00
8:53 AM,82.0,75.9,82,30.09,10.0,Calm,Calm,-,N/A,,Clear,0,2013-08-11 13:53:00
9:53 AM,86.0,75.9,72,30.09,10.0,ENE,3.5,-,N/A,,Scattered Clouds,70,2013-08-11 14:53:00
10:53 AM,82.9,73.0,72,30.10,10.0,SE,8.1,-,N/A,,Scattered Clouds,130,2013-08-11 15:53:00
11:53 AM,84.0,73.9,72,30.09,10.0,South,8.1,-,0.07,,Mostly Cloudy,170,2013-08-11 16:53:00
12:45 PM,82.4,73.4,74,30.11,10.0,SSE,10.4,-,0.01,Thunderstorm,Thunderstorm,160,2013-08-11 17:45:00
12:53 PM,80.1,73.9,81,30.11,4.0,Variable,3.5,-,0.07,Rain-Thunderstorm,Heavy Thunderstorms and Rain,0,2013-08-11 17:53:00
1:41 PM,87.8,75.2,66,30.09,10.0,NNE,3.5,-,0.00,,Partly Cloudy,30,2013-08-11 18:41:00
1:53 PM,87.1,75.9,69,30.09,10.0,ENE,4.6,-,0.00,,Partly Cloudy,70,2013-08-11 18:53:00
2:53 PM,88.0,73.9,63,30.06,10.0,SSE,8.1,-,N/A,,Partly Cloudy,160,2013-08-11 19:53:00
3:53 PM,86.0,75.0,70,30.05,10.0,SE,4.6,-,N/A,,Clear,130,2013-08-11 20:53:00
4:53 PM,84.9,75.9,74,30.06,10.0,Variable,3.5,-,N/A,,Partly Cloudy,0,2013-08-11 21:53:00
5:53 PM,84.9,75.9,74,30.05,10.0,South,5.8,-,N/A,,Clear,180,2013-08-11 22:53:00
6:53 PM,84.9,73.0,67,30.05,10.0,South,6.9,-,N/A,,Clear,190,2013-08-11 23:53:00
7:53 PM,82.9,77.0,82,30.06,10.0,Calm,Calm,-,N/A,,Clear,0,2013-08-12 00:53:00
8:53 PM,81.0,77.0,88,30.08,10.0,Calm,Calm,-,N/A,,Clear,0,2013-08-12 01:53:00
9:53 PM,80.1,75.9,87,30.09,10.0,Calm,Calm,-,N/A,,Clear,0,2013-08-12 02:53:00
10:53 PM,79.0,75.9,90,30.09,10.0,Calm,Calm,-,N/A,,Clear,0,2013-08-12 03:53:00
11:53 PM,79.0,75.9,90,30.09,10.0,Calm,Calm,-,N/A,,Clear,0,2013-08-12 04:53:00